Content
SEND FEEDBACK

Daily
Averages
Monthly
Summary
United States of America

ST. LOUIS, MISSOURI


Home > North America > United States > Missouri
Elevation: 163 meters     Latitude: 38 45N     Longitude: 090 22W

WEATHER
 
SELECT A DAY
Number of Records: 201,502;   Date Range: 1/1/95 - 12/27/14
 
SHARE

PRINT THIS DATA

[ ← Previous Day ]
WEATHER ALMANAC - 11 MAY, 2013
[ Next Day → ]
[ °F ]   °C
Weather ElementAverageHighLow
Temperature14.6 °C21.1 °C (11:54 am)8.9 °C (11:54 pm)
Dewpoint6.6 °C11.1 °C (10:54 am)-1.1 °C (7:54 pm)
Humidity62.7 %93 % (5:54 am)30 % (5:54 pm)
Barometer1017.6 hPa1021.7 hPa (10:54 pm)1015.6 hPa (11:54 am)
Wind Speed14.3 km/h33.3 km/h (4:54 pm)
Wind Gust48.1 km/h (2:54 pm)
Weather ElementAverage
Visibility15.9 km
Wind DirectionWNW (275.7 °)

Weather ElementTotal
Precipitation---
Heating Degree Days3.3 (Base 18.3)
Growing Degree Days5 (Base 10)
Averaged from 28 records on 11 May, 2013
WEATHER CONDITIONS BREAKOUT
WIND DIRECTION BREAKOUT
WEATHER BY HOUR - 11 MAY, 2013
[ °F ]   °C
Local TimeTemperatureDewpointHumidityBarometerVisibilityWind DirectionWind SpeedGust SpeedPrecipitationEventsConditions
1:37 AM13 °C10 °C82 %1016.9 hPa16.1 kmNW (310°)7.4 km/hOvercast
1:54 AM13.3 °C10 °C80 %1016.9 hPa16.1 kmWNW (300°)5.6 km/hOvercast
2:43 AM13 °C10 °C82 %1016.9 hPa16.1 kmWest (280°)7.4 km/hOvercast
2:54 AM12.8 °C10 °C83 %1016.6 hPa16.1 kmWNW (300°)5.6 km/hOvercast
3:07 AM13 °C10 °C82 %1016.6 hPa16.1 kmWNW (290°)7.4 km/hOvercast
3:31 AM13 °C10 °C82 %1016.6 hPa16.1 kmWNW (300°)11.1 km/hOvercast
3:54 AM12.8 °C10 °C83 %1016.3 hPa16.1 kmWNW (290°)11.1 km/hOvercast
4:50 AM12 °C9 °C82 %1015.9 hPa16.1 kmCalmPartly Cloudy
4:54 AM11.1 °C9.4 °C89 %1015.9 hPa16.1 kmCalmPartly Cloudy
5:54 AM9.4 °C8.3 °C93 %1016.3 hPa12.9 kmWSW (250°)5.6 km/hClear
6:54 AM11.1 °C9.4 °C89 %1016.6 hPa12.9 kmWSW (250°)9.3 km/hClear
7:54 AM12.8 °C10 °C83 %1016.6 hPa16.1 kmWest (260°)11.1 km/hPartly Cloudy
8:54 AM14 °C10 °C77 %1016.9 hPa16.1 kmWSW (250°)13 km/hPartly Cloudy
9:54 AM16.7 °C10.6 °C67 %1016.3 hPa16.1 kmWSW (240°)16.7 km/hPartly Cloudy
10:54 AM18.9 °C11.1 °C60 %1015.9 hPa16.1 kmWSW (250°)18.5 km/hPartly Cloudy
11:54 AM21.1 °C10 °C49 %1015.6 hPa16.1 kmWest (280°)27.8 km/hMostly Cloudy
12:54 PM19.4 °C10 °C54 %1016.3 hPa16.1 kmNNW (330°)29.6 km/h42.6 km/hOvercast
1:54 PM21.1 °C7.2 °C41 %1016.6 hPa16.1 kmNW (320°)29.6 km/h40.7 km/hScattered Clouds
2:54 PM20.6 °C3.9 °C33 %1017.3 hPa16.1 kmNW (320°)29.6 km/h48.1 km/hPartly Cloudy
3:54 PM19.4 °C1.7 °C31 %1017.6 hPa16.1 kmNW (310°)29.6 km/h48.1 km/hClear
4:54 PM18.9 °C1.7 °C32 %1017.9 hPa16.1 kmNNW (340°)33.3 km/h44.4 km/hClear
5:54 PM17.8 °C0 °C30 %1018.6 hPa16.1 kmNNW (330°)18.5 km/h40.7 km/hClear
6:54 PM16.7 °C0.6 °C34 %1019 hPa16.1 kmNNW (340°)22.2 km/h33.3 km/hClear
7:54 PM14.4 °C-1.1 °C35 %1019.6 hPa16.1 kmNNW (340°)13 km/h33.3 km/hClear
8:54 PM12.2 °C0.6 °C45 %1020.3 hPa16.1 kmWNW (300°)9.3 km/hClear
9:54 PM12.2 °C0 °C43 %1021 hPa16.1 kmNNW (340°)13 km/hClear
10:54 PM9.4 °C1.7 °C59 %1021.7 hPa16.1 kmWNW (300°)9.3 km/hClear
11:54 PM8.9 °C0.6 °C56 %1021.7 hPa16.1 kmWNW (300°)5.6 km/hClear
Hourly data recorded from KSUS, located 0 kilometers away from St. Louis, Missouri







STORIES FROM OUR PARTNERS